�������l�o���
Date,Time,MP-1(��Sv/h),MP-2(��Sv/h),MP-3(��Sv/h),MP-4(��Sv/h),MP-5(��Sv/h),MP-6(��Sv/h),MP-7(��Sv/h),MP-8(��Sv/h),����,����(m/s),���J
2024/02/20,00:00,0.526,0.788,0.495,0.990,0.710,0.324,0.564,0.525,��,10.0,�L
2024/02/20,00:10,0.525,0.786,0.495,0.988,0.710,0.323,0.563,0.527,��,9.5,�L
2024/02/20,00:20,0.524,0.786,0.494,0.989,0.707,0.321,0.563,0.525,��,9.9,�L
2024/02/20,00:30,0.523,0.786,0.494,0.990,0.711,0.321,0.562,0.526,��,9.1,�L
2024/02/20,00:40,0.523,0.787,0.493,0.988,0.709,0.322,0.564,0.526,��,8.1,�L
2024/02/20,00:50,0.523,0.785,0.491,0.989,0.708,0.320,0.563,0.525,��쐼,8.3,�L
2024/02/20,01:00,0.523,0.783,0.491,0.988,0.708,0.318,0.562,0.527,��,8.9,�L
2024/02/20,01:10,0.522,0.785,0.491,0.988,0.708,0.317,0.562,0.527,��,10.6,�L
2024/02/20,01:20,0.520,0.783,0.491,0.987,0.709,0.317,0.563,0.528,��,11.7,�L
2024/02/20,01:30,0.521,0.783,0.491,0.987,0.708,0.318,0.562,0.527,��,10.3,�L
2024/02/20,01:40,0.520,0.784,0.490,0.986,0.707,0.317,0.561,0.526,��,9.1,�L
2024/02/20,01:50,0.520,0.783,0.491,0.986,0.706,0.317,0.562,0.525,��,9.7,��
2024/02/20,02:00,0.520,0.783,0.491,0.987,0.706,0.316,0.563,0.526,��,9.6,��
2024/02/20,02:10,0.520,0.783,0.492,0.986,0.704,0.317,0.563,0.525,��,8.8,�L
2024/02/20,02:20,0.519,0.782,0.491,0.987,0.707,0.317,0.564,0.525,��,9.2,�L
2024/02/20,02:30,0.518,0.781,0.490,0.988,0.707,0.317,0.562,0.526,��쐼,8.9,��
2024/02/20,02:40,0.517,0.780,0.492,0.987,0.704,0.316,0.563,0.526,��쐼,7.3,��
2024/02/20,02:50,0.518,0.779,0.491,0.986,0.704,0.315,0.563,0.525,��쐼,5.8,��
2024/02/20,03:00,0.519,0.782,0.491,0.985,0.703,0.316,0.562,0.525,�쐼,6.4,��
2024/02/20,03:10,0.520,0.782,0.490,0.984,0.704,0.315,0.564,0.525,��쐼,7.1,��
2024/02/20,03:20,0.519,0.783,0.490,0.985,0.705,0.315,0.563,0.526,��쐼,8.1,��
2024/02/20,03:30,0.517,0.783,0.492,0.984,0.705,0.317,0.561,0.525,��쐼,8.7,��
2024/02/20,03:40,0.519,0.781,0.490,0.986,0.705,0.315,0.563,0.525,��쐼,8.5,��
2024/02/20,03:50,0.520,0.783,0.490,0.986,0.704,0.315,0.563,0.525,��쐼,9.4,�L
2024/02/20,04:00,0.519,0.784,0.490,0.989,0.704,0.316,0.563,0.526,��,7.8,�L
2024/02/20,04:10,0.518,0.783,0.491,0.984,0.706,0.317,0.563,0.526,��,6.6,�L
2024/02/20,04:20,0.518,0.782,0.490,0.986,0.705,0.314,0.563,0.525,��,5.9,�L
2024/02/20,04:30,0.519,0.783,0.491,0.986,0.706,0.317,0.563,0.526,��,6.9,�L
2024/02/20,04:40,0.519,0.783,0.490,0.985,0.707,0.317,0.562,0.525,��쐼,5.5,�L
2024/02/20,04:50,0.519,0.783,0.490,0.986,0.706,0.316,0.563,0.524,��,4.4,�L
2024/02/20,05:00,0.517,0.784,0.491,0.987,0.706,0.315,0.563,0.525,��,5.7,�L
2024/02/20,05:10,0.518,0.782,0.490,0.987,0.706,0.317,0.562,0.526,��,5.6,�L
2024/02/20,05:20,0.519,0.784,0.491,0.986,0.705,0.318,0.562,0.525,��,6.1,�L
2024/02/20,05:30,0.520,0.783,0.492,0.988,0.705,0.316,0.564,0.524,��,6.1,�L
2024/02/20,05:40,0.520,0.782,0.491,0.986,0.705,0.318,0.563,0.526,��,6.2,�L
2024/02/20,05:50,0.520,0.782,0.492,0.985,0.703,0.319,0.563,0.526,��,6.1,�L
2024/02/20,06:00,0.520,0.782,0.493,0.987,0.702,0.318,0.562,0.524,��쐼,3.5,�L
2024/02/20,06:10,0.519,0.782,0.493,0.988,0.701,0.318,0.562,0.524,��쐼,4.6,�L
2024/02/20,06:20,0.521,0.781,0.490,0.985,0.700,0.318,0.560,0.524,��쐼,5.0,�L
2024/02/20,06:30,0.520,0.781,0.491,0.985,0.700,0.319,0.561,0.523,��쐼,5.8,�L
2024/02/20,06:40,0.519,0.782,0.490,0.988,0.699,0.318,0.561,0.523,��쐼,6.3,�L
2024/02/20,06:50,0.521,0.781,0.491,0.984,0.700,0.317,0.560,0.521,��쐼,6.0,�L
2024/02/20,07:00,0.519,0.781,0.489,0.985,0.701,0.318,0.560,0.523,��쐼,6.1,��
2024/02/20,07:10,0.519,0.782,0.489,0.986,0.700,0.317,0.561,0.523,��쐼,6.4,��
2024/02/20,07:20,0.519,0.781,0.488,0.984,0.700,0.315,0.561,0.522,��쐼,7.6,��
2024/02/20,07:30,0.518,0.784,0.489,0.983,0.697,0.316,0.561,0.525,��쐼,8.1,��
2024/02/20,07:40,0.517,0.779,0.489,0.983,0.700,0.315,0.561,0.524,��쐼,7.6,��
2024/02/20,07:50,0.518,0.777,0.488,0.985,0.699,0.315,0.560,0.522,��쐼,7.7,��
2024/02/20,08:00,0.517,0.780,0.490,0.984,0.699,0.314,0.560,0.523,��쐼,6.4,��
2024/02/20,08:10,0.516,0.779,0.488,0.984,0.699,0.313,0.560,0.523,��쐼,6.2,��
2024/02/20,08:20,0.518,0.777,0.488,0.983,0.700,0.314,0.560,0.522,��,5.4,��
2024/02/20,08:30,0.518,0.776,0.490,0.983,0.699,0.313,0.558,0.523,��,5.7,��
2024/02/20,08:40,0.519,0.779,0.487,0.984,0.699,0.314,0.560,0.523,��,6.1,��
2024/02/20,08:50,0.518,0.781,0.488,0.984,0.699,0.313,0.560,0.522,��,7.2,��
2024/02/20,09:00,0.519,0.778,0.489,0.984,0.702,0.314,0.560,0.521,��쐼,6.1,��
2024/02/20,09:10,0.518,0.777,0.488,0.985,0.701,0.313,0.561,0.524,��쐼,5.0,��
2024/02/20,09:20,0.517,0.781,0.489,0.985,0.701,0.312,0.561,0.523,��쐼,3.2,��
2024/02/20,09:30,0.519,0.778,0.488,0.984,0.701,0.313,0.562,0.522,�쐼,3.5,��
2024/02/20,09:40,0.516,0.781,0.487,0.986,0.700,0.312,0.562,0.522,���쐼,3.5,��
2024/02/20,09:50,0.518,0.779,0.488,0.985,0.699,0.313,0.559,0.523,��,5.4,��
2024/02/20,10:00,0.519,0.780,0.489,0.984,0.702,0.314,0.561,0.522,��,6.4,��
2024/02/20,10:10,0.517,0.779,0.488,0.987,0.701,0.312,0.560,0.522,��,7.9,��
2024/02/20,10:20,0.519,0.779,0.488,0.986,0.702,0.314,0.562,0.521,���k��,7.6,��
2024/02/20,10:30,0.519,0.780,0.487,0.986,0.703,0.315,0.560,0.522,���k��,9.7,��
2024/02/20,10:40,0.518,0.782,0.488,0.984,0.705,0.313,0.561,0.522,���k��,11.6,��
2024/02/20,10:50,0.518,0.781,0.488,0.986,0.703,0.314,0.560,0.521,���k��,10.2,��
2024/02/20,11:00,0.520,0.782,0.490,0.984,0.702,0.314,0.563,0.523,���k��,10.7,��
2024/02/20,11:10,0.518,0.782,0.489,0.985,0.703,0.312,0.561,0.522,���k��,9.2,��
2024/02/20,11:20,0.518,0.781,0.490,0.987,0.704,0.313,0.562,0.523,���k��,10.3,��
2024/02/20,11:30,0.519,0.784,0.490,0.987,0.705,0.314,0.561,0.523,�k��,10.5,��
2024/02/20,11:40,0.519,0.782,0.488,0.987,0.703,0.314,0.562,0.523,�k��,12.0,��
2024/02/20,11:50,0.519,0.783,0.490,0.986,0.703,0.313,0.562,0.522,�k��,10.9,��
2024/02/20,12:00,0.520,0.783,0.489,0.986,0.705,0.313,0.562,0.522,�k��,8.2,��
2024/02/20,12:10,0.519,0.784,0.489,0.984,0.704,0.313,0.560,0.523,�k��,9.1,��
2024/02/20,12:20,0.518,0.783,0.488,0.987,0.703,0.313,0.562,0.524,�k��,8.9,��
2024/02/20,12:30,0.518,0.783,0.489,0.987,0.705,0.314,0.562,0.522,�k��,6.7,��
2024/02/20,12:40,0.518,0.785,0.488,0.988,0.706,0.314,0.562,0.524,���k��,6.9,��
2024/02/20,12:50,0.519,0.782,0.492,0.991,0.706,0.314,0.561,0.524,���k��,7.6,��
2024/02/20,13:00,0.520,0.783,0.489,0.988,0.705,0.314,0.561,0.525,���k��,10.2,��
2024/02/20,13:10,0.520,0.783,0.489,0.986,0.704,0.314,0.561,0.523,���k��,13.0,��
2024/02/20,13:20,0.518,0.781,0.490,0.988,0.706,0.314,0.561,0.526,���k��,12.7,��
2024/02/20,13:30,0.519,0.780,0.491,0.989,0.703,0.313,0.563,0.525,���k��,11.0,��
2024/02/20,13:40,0.519,0.783,0.489,0.988,0.703,0.313,0.561,0.525,���k��,12.7,��
2024/02/20,13:50,0.520,0.781,0.489,0.988,0.706,0.314,0.562,0.525,���k��,6.6,��
2024/02/20,14:00,0.520,0.782,0.491,0.988,0.705,0.313,0.562,0.524,��,5.1,��
2024/02/20,14:10,0.519,0.785,0.489,0.990,0.705,0.313,0.561,0.525,���k��,1.9,��
2024/02/20,14:20,0.517,0.782,0.488,0.989,0.708,0.314,0.561,0.526,���k��,1.2,��
2024/02/20,14:30,0.518,0.784,0.491,0.989,0.706,0.314,0.563,0.525,�k,2.0,��
2024/02/20,14:40,0.519,0.782,0.490,0.992,0.706,0.315,0.561,0.525,�k�k��,3.3,��
2024/02/20,14:50,0.520,0.784,0.493,0.989,0.706,0.314,0.563,0.524,�k,4.6,��
2024/02/20,15:00,0.520,0.783,0.491,0.992,0.704,0.315,0.562,0.526,�k�k��,3.5,��
2024/02/20,15:10,0.519,0.785,0.491,0.989,0.707,0.314,0.561,0.525,�k,5.0,��
2024/02/20,15:20,0.519,0.785,0.491,0.991,0.708,0.314,0.562,0.525,�k,3.4,��
2024/02/20,15:30,0.519,0.784,0.492,0.991,0.706,0.314,0.562,0.524,�k,2.3,��
2024/02/20,15:40,0.520,0.784,0.493,0.991,0.706,0.314,0.563,0.525,�k,5.3,��
2024/02/20,15:50,0.518,0.787,0.493,0.989,0.706,0.315,0.561,0.525,�k��,2.6,��
2024/02/20,16:00,0.521,0.785,0.494,0.990,0.709,0.316,0.563,0.525,�k��,3.1,��
2024/02/20,16:10,0.521,0.786,0.492,0.992,0.709,0.315,0.560,0.525,�k�k��,9.2,��
2024/02/20,16:20,0.519,0.788,0.491,0.990,0.707,0.315,0.562,0.525,�k�k��,8.4,��
2024/02/20,16:30,0.520,0.786,0.491,0.991,0.707,0.314,0.561,0.524,�k�k��,8.2,��
2024/02/20,16:40,0.519,0.783,0.491,0.990,0.706,0.314,0.560,0.525,�k,5.5,��
2024/02/20,16:50,0.520,0.785,0.490,0.989,0.706,0.315,0.561,0.525,�k,5.1,��
2024/02/20,17:00,0.518,0.782,0.491,0.989,0.706,0.315,0.561,0.526,�k,5.9,��
2024/02/20,17:10,0.520,0.786,0.492,0.990,0.706,0.314,0.562,0.525,�k,6.3,��
2024/02/20,17:20,0.521,0.784,0.490,0.990,0.705,0.314,0.562,0.527,�k,5.9,��
2024/02/20,17:30,0.521,0.788,0.492,0.992,0.709,0.315,0.561,0.525,�k,6.4,��
2024/02/20,17:40,0.520,0.790,0.491,0.990,0.708,0.315,0.561,0.525,�k�k��,7.2,��
2024/02/20,17:50,0.522,0.786,0.493,0.991,0.708,0.315,0.562,0.526,�k,7.5,��
2024/02/20,18:00,0.521,0.788,0.492,0.990,0.708,0.315,0.561,0.525,�k,6.9,��
2024/02/20,18:10,0.521,0.788,0.491,0.989,0.708,0.315,0.561,0.526,�k,4.8,��
2024/02/20,18:20,0.522,0.786,0.491,0.991,0.709,0.316,0.561,0.525,�k�k��,5.8,��
2024/02/20,18:30,0.520,0.789,0.493,0.991,0.708,0.315,0.562,0.527,�k,7.9,��
2024/02/20,18:40,0.523,0.788,0.491,0.989,0.710,0.316,0.562,0.525,�k,6.7,��
2024/02/20,18:50,0.522,0.786,0.490,0.989,0.708,0.315,0.562,0.524,�k,6.1,��
2024/02/20,19:00,0.520,0.788,0.490,0.991,0.709,0.315,0.562,0.525,�k�k��,6.4,��
2024/02/20,19:10,0.521,0.787,0.490,0.990,0.710,0.315,0.562,0.524,�k,7.8,��
2024/02/20,19:20,0.520,0.789,0.491,0.990,0.709,0.315,0.561,0.526,�k,6.6,��
2024/02/20,19:30,0.522,0.787,0.492,0.992,0.710,0.314,0.561,0.526,�k,6.8,��
2024/02/20,19:40,0.520,0.788,0.491,0.991,0.708,0.315,0.561,0.525,�k,7.4,��
2024/02/20,19:50,0.520,0.788,0.492,0.990,0.709,0.314,0.560,0.524,�k,8.2,��
2024/02/20,20:00,0.520,0.788,0.490,0.991,0.710,0.314,0.562,0.524,�k,8.5,��
2024/02/20,20:10,0.520,0.789,0.491,0.988,0.709,0.314,0.560,0.525,�k,9.3,��
2024/02/20,20:20,0.520,0.787,0.492,0.989,0.710,0.313,0.560,0.525,�k,8.9,��
2024/02/20,20:30,0.519,0.786,0.490,0.988,0.710,0.314,0.560,0.525,�k,8.5,��
2024/02/20,20:40,0.521,0.788,0.490,0.990,0.709,0.313,0.559,0.526,�k,7.6,�L
2024/02/20,20:50,0.521,0.787,0.491,0.990,0.710,0.315,0.558,0.524,�k,7.3,��
2024/02/20,21:00,0.520,0.788,0.489,0.991,0.710,0.313,0.559,0.524,�k,7.6,��
2024/02/20,21:10,0.518,0.787,0.490,0.991,0.708,0.313,0.558,0.524,�k,7.3,�L
2024/02/20,21:20,0.521,0.787,0.489,0.989,0.707,0.314,0.560,0.525,�k�k��,7.7,�L
2024/02/20,21:30,0.522,0.788,0.490,0.990,0.709,0.315,0.561,0.524,�k,6.0,�L
2024/02/20,21:40,0.522,0.786,0.492,0.990,0.710,0.315,0.560,0.524,�k,5.4,�L
2024/02/20,21:50,0.524,0.788,0.494,0.992,0.711,0.318,0.559,0.525,�k,6.8,�L
2024/02/20,22:00,0.525,0.786,0.497,0.994,0.713,0.319,0.560,0.526,�k,5.5,�L
2024/02/20,22:10,0.527,0.788,0.497,0.996,0.711,0.321,0.562,0.526,�k,5.9,�L
2024/02/20,22:20,0.524,0.789,0.495,0.994,0.712,0.320,0.562,0.525,�k,5.3,�L
2024/02/20,22:30,0.525,0.786,0.495,0.993,0.711,0.320,0.562,0.526,�k,6.9,�L
2024/02/20,22:40,0.523,0.784,0.494,0.992,0.710,0.318,0.561,0.526,�k,6.1,�L
2024/02/20,22:50,0.523,0.783,0.492,0.992,0.708,0.318,0.562,0.525,�k,8.2,�L
2024/02/20,23:00,0.522,0.783,0.492,0.988,0.705,0.318,0.563,0.526,�k�k��,8.4,�L
2024/02/20,23:10,0.521,0.780,0.490,0.986,0.706,0.316,0.561,0.524,�k�k��,8.4,�L
2024/02/20,23:20,0.521,0.780,0.491,0.988,0.706,0.315,0.561,0.524,�k,8.1,�L
2024/02/20,23:30,0.518,0.780,0.489,0.988,0.704,0.316,0.561,0.523,�k�k��,9.1,�L
2024/02/20,23:40,0.516,0.780,0.488,0.984,0.705,0.315,0.560,0.523,�k,8.6,�L
2024/02/20,23:50,0.518,0.781,0.487,0.986,0.703,0.315,0.561,0.523,�k�k��,8.5,�L
